Terminal Aerodrome Forecast
Issued by NWS Cleveland, OH

Home | Current Version | Previous Version | Graphics & Text | Print | Product List | Glossary On
Versions: 1 2 3 4 5 6 7 8 9 10 11 12 13 14 15 16 17 18 19 20 21 22 23 24 25 26 27 28 29 30 31 32 33 34 35 36
000
FTUS41 KCLE 221500 AAB
TAFCLE
TAF AMD
KCLE 221502Z 2215/2318 31012G22KT 6SM BR VCTS BKN015CB OVC025
      TEMPO 2215/2217 3SM -RA BR OVC035
     FM221700 32014G24KT P6SM BKN020 OVC025
     FM221800 32020G28KT P6SM BKN025
     FM230100 32012KT P6SM VCSH BKN030=

USA.gov is the U.S. government's official web portal to all federal, state and local government web resources and services.